,,,PA_Meas_PMT16A,,PR_Meas_QMR101_102,,RH_Meas_QMH101,,SR_Meas_QMS101,,TA_Meas_QMH101,,GenWind,,GenWind,
date,time,status,PA,status,PR,status,RH,status,SR,status,TA,status,DirAvg,status,SpdAvg,
2008-07-31, 06:31:04,VALID,1005.16,VALID,0,VALID,95.5746,VALID,49.8792,VALID,23.9779,VALID,64,VALID,0.00351562,
2008-07-31, 06:32:04,VALID,1005.15,VALID,0,VALID,95.6433,VALID,51.3877,VALID,24.015,VALID,63,VALID,0.306641,
2008-07-31, 06:33:04,VALID,1005.19,VALID,0,VALID,95.6509,VALID,53.3989,VALID,24.0557,VALID,63,VALID,0.163281,
2008-07-31, 06:34:04,VALID,1005.21,VALID,0,VALID,95.6433,VALID,55.913,VALID,24.0734,VALID,63,VALID,0,
2008-07-31, 06:35:04,VALID,1005.23,VALID,0,VALID,95.6356,VALID,58.4271,VALID,24.1336,VALID,63,VALID,0,
2008-07-31, 06:36:04,VALID,1005.26,VALID,0,VALID,95.5746,VALID,60.6395,VALID,24.1318,VALID,63,VALID,0.169531,
2008-07-31, 06:37:04,VALID,1005.28,VALID,0,VALID,95.5822,VALID,62.6507,VALID,24.192,VALID,55,VALID,0.274219,
2008-07-31, 06:38:04,VALID,1005.31,VALID,0,VALID,95.5441,VALID,64.2597,VALID,24.2097,VALID,53,VALID,0,
2008-07-31, 06:39:04,VALID,1005.33,VALID,0,VALID,95.506,VALID,65.567,VALID,24.2504,VALID,53,VALID,0.0703125,
2008-07-31, 06:40:04,VALID,1005.34,VALID,0,VALID,95.5365,VALID,66.8744,VALID,24.2875,VALID,53,VALID,0.003125,
2008-07-31, 06:41:04,VALID,1005.36,VALID,0,VALID,95.4526,VALID,68.1817,VALID,24.2875,VALID,53,VALID,0.244531,
2008-07-31, 06:42:04,VALID,1005.37,VALID,0,VALID,95.4297,VALID,69.9918,VALID,24.3478,VALID,53,VALID,0,
2008-07-31, 06:43:04,VALID,1005.39,VALID,0,VALID,95.3839,VALID,71.8019,VALID,24.3673,VALID,53,VALID,0,
2008-07-31, 06:44:04,VALID,1005.41,VALID,0,VALID,95.3152,VALID,73.6121,VALID,24.4062,VALID,53,VALID,0,
2008-07-31, 06:45:04,VALID,1005.39,VALID,0,VALID,95.2847,VALID,75.4222,VALID,24.4257,VALID,53,VALID,0,
2008-07-31, 06:46:04,VALID,1005.44,VALID,0,VALID,95.2237,VALID,78.0368,VALID,24.4238,VALID,53,VALID,0.155859,
2008-07-31, 06:47:04,VALID,1005.45,VALID,0,VALID,95.1703,VALID,81.0537,VALID,24.4841,VALID,53,VALID,0.00625,
2008-07-31, 06:48:04,VALID,1005.5,VALID,0,VALID,95.1169,VALID,83.8695,VALID,24.5425,VALID,53,VALID,0.174219,
2008-07-31, 06:49:04,VALID,1005.5,VALID,0,VALID,95.1627,VALID,86.0819,VALID,24.5814,VALID,53,VALID,0,
2008-07-31, 06:50:04,VALID,1005.53,VALID,0,VALID,95.1855,VALID,87.2886,VALID,24.6398,VALID,53,VALID,0,
2008-07-31, 06:51:04,VALID,1005.54,VALID,0,VALID,95.0024,VALID,88.1937,VALID,24.6593,VALID,53,VALID,0,
2008-07-31, 06:52:04,VALID,1005.58,VALID,0,VALID,94.888,VALID,88.7971,VALID,24.6398,VALID,53,VALID,0,
2008-07-31, 06:53:04,VALID,1005.6,VALID,0,VALID,94.8422,VALID,89.6016,VALID,24.6593,VALID,53,VALID,0,
2008-07-31, 06:54:04,VALID,1005.67,VALID,0,VALID,94.9338,VALID,90.5067,VALID,24.7372,VALID,53,VALID,0,
2008-07-31, 06:55:04,VALID,1005.68,VALID,0,VALID,94.8346,VALID,91.6128,VALID,24.7761,VALID,53,VALID,0,
2008-07-31, 06:56:04,VALID,1005.69,VALID,0,VALID,94.7888,VALID,91.814,VALID,24.7956,VALID,53,VALID,0,
2008-07-31, 06:57:04,VALID,1005.7,VALID,0,VALID,94.682,VALID,90.9089,VALID,24.8151,VALID,53,VALID,0,
2008-07-31, 06:58:04,VALID,1005.72,VALID,0,VALID,94.6668,VALID,88.7971,VALID,24.854,VALID,53,VALID,0,
2008-07-31, 06:59:04,VALID,1005.76,VALID,0,VALID,94.7278,VALID,85.7802,VALID,24.893,VALID,53,VALID,0,
2008-07-31, 07:00:04,VALID,1005.76,VALID,0,VALID,94.7278,VALID,82.3611,VALID,24.9495,VALID,53,VALID,0,
2008-07-31, 07:01:04,VALID,1005.8,VALID,0,VALID,94.6897,VALID,79.7464,VALID,25.0079,VALID,53,VALID,0,
2008-07-31, 07:02:04,VALID,1005.8,VALID,0,VALID,94.5523,VALID,78.0368,VALID,25.0488,VALID,53,VALID,0,
2008-07-31, 07:03:04,VALID,1005.82,VALID,0,VALID,94.3921,VALID,77.4335,VALID,25.0488,VALID,53,VALID,0,
2008-07-31, 07:04:04,VALID,1005.85,VALID,0,VALID,94.2014,VALID,77.9363,VALID,25.0682,VALID,53,VALID,0,
2008-07-31, 07:05:04,VALID,1005.87,VALID,0,VALID,94.087,VALID,81.456,VALID,25.0469,VALID,53,VALID,0,
2008-07-31, 07:06:04,VALID,1005.86,VALID,0,VALID,94.0031,VALID,85.2774,VALID,25.0858,VALID,53,VALID,0,
2008-07-31, 07:07:04,VALID,1005.87,VALID,0,VALID,93.7971,VALID,90.205,VALID,25.1053,VALID,53,VALID,0,
2008-07-31, 07:08:04,VALID,1005.91,VALID,0,VALID,93.6826,VALID,93.423,VALID,25.1461,VALID,53,VALID,0,
2008-07-31, 07:09:04,VALID,1005.94,VALID,0,VALID,93.6674,VALID,95.7359,VALID,25.1637,VALID,53,VALID,0,
2008-07-31, 07:10:04,VALID,1005.96,VALID,0,VALID,93.7055,VALID,97.8477,VALID,25.2435,VALID,51,VALID,0,
2008-07-31, 07:11:04,VALID,1006.02,VALID,0,VALID,93.5224,VALID,99.859,VALID,25.2416,VALID,51,VALID,0.325,
2008-07-31, 07:12:04,VALID,1006.03,VALID,0,VALID,93.6445,VALID,100.865,VALID,25.3019,VALID,43,VALID,0.373828,
2008-07-31, 07:13:04,VALID,1006.05,VALID,0,VALID,93.5148,VALID,102.373,VALID,25.3214,VALID,42,VALID,0.233203,
2008-07-31, 07:14:04,VALID,1006.04,VALID,0,VALID,93.4233,VALID,105.792,VALID,25.3409,VALID,35,VALID,0.357422,
2008-07-31, 07:15:04,VALID,1006.05,VALID,0,VALID,93.3928,VALID,107.703,VALID,25.3,VALID,34,VALID,0.139453,
2008-07-31, 07:16:04,VALID,1006.04,VALID,0,VALID,93.469,VALID,108.709,VALID,25.3584,VALID,34,VALID,0,
2008-07-31, 07:17:04,VALID,1006.02,VALID,0,VALID,93.5148,VALID,108.709,VALID,25.3974,VALID,34,VALID,0.000390625,
2008-07-31, 07:18:04,VALID,1006.03,VALID,0,VALID,93.2859,VALID,111.323,VALID,25.4383,VALID,34,VALID,0.1375,
2008-07-31, 07:19:04,VALID,1006.03,VALID,0,VALID,93.0418,VALID,114.038,VALID,25.4597,VALID,34,VALID,0.301953,
2008-07-31, 07:20:04,VALID,1006.03,VALID,0,VALID,92.8511,VALID,113.133,VALID,25.4577,VALID,34,VALID,0.338672,
2008-07-31, 07:21:04,VALID,1006.04,VALID,0,VALID,92.5383,VALID,112.228,VALID,25.4383,VALID,34,VALID,0.00585938,
2008-07-31, 07:22:04,VALID,1006.06,VALID,0,VALID,92.668,VALID,112.53,VALID,25.4383,VALID,34,VALID,0,
2008-07-31, 07:23:04,VALID,1006.07,VALID,0,VALID,92.9808,VALID,115.748,VALID,25.5162,VALID,34,VALID,0,
2008-07-31, 07:24:04,VALID,1006.14,VALID,0,VALID,92.7977,VALID,122.687,VALID,25.5746,VALID,34,VALID,0,
2008-07-31, 07:25:04,VALID,1006.13,VALID,0,VALID,92.6146,VALID,129.022,VALID,25.6136,VALID,31,VALID,0,
2008-07-31, 07:26:04,VALID,1006.19,VALID,0,VALID,92.2866,VALID,132.743,VALID,25.6136,VALID,20,VALID,0.342969,
2008-07-31, 07:27:04,VALID,1006.2,VALID,0,VALID,91.8822,VALID,133.849,VALID,25.6136,VALID,6,VALID,0.473047,
2008-07-31, 07:28:04,VALID,1006.2,VALID,0,VALID,92.0653,VALID,135.257,VALID,25.633,VALID,6,VALID,0.3375,
2008-07-31, 07:29:04,VALID,1006.21,VALID,0,VALID,92.0119,VALID,136.062,VALID,25.672,VALID,356,VALID,0.440234,
2008-07-31, 07:30:04,VALID,1006.23,VALID,0,VALID,92.0653,VALID,136.665,VALID,25.6915,VALID,350,VALID,0.30625,
2008-07-31, 07:31:04,VALID,1006.23,VALID,0,VALID,92.0882,VALID,137.369,VALID,25.7109,VALID,350,VALID,0.249609,
2008-07-31, 07:32:04,VALID,1006.26,VALID,0,VALID,91.8822,VALID,138.676,VALID,25.7304,VALID,350,VALID,0.0246094,
2008-07-31, 07:33:04,VALID,1006.26,VALID,0,VALID,91.661,VALID,147.928,VALID,25.7499,VALID,350,VALID,0.179297,
2008-07-31, 07:34:04,VALID,1006.29,VALID,0,VALID,91.989,VALID,139.883,VALID,25.7889,VALID,350,VALID,0,
2008-07-31, 07:35:04,VALID,1006.29,VALID,0,VALID,91.8975,VALID,139.682,VALID,25.8473,VALID,350,VALID,0,
2008-07-31, 07:36:04,VALID,1006.31,VALID,0,VALID,91.4855,VALID,140.386,VALID,25.8473,VALID,348,VALID,0.151953,
2008-07-31, 07:37:04,VALID,1006.33,VALID,0,VALID,91.4932,VALID,141.794,VALID,25.8863,VALID,347,VALID,0.130469,
2008-07-31, 07:38:04,VALID,1006.33,VALID,0,VALID,90.7608,VALID,142.397,VALID,25.8863,VALID,347,VALID,0.364844,
2008-07-31, 07:39:04,VALID,1006.34,VALID,0,VALID,91.0278,VALID,141.995,VALID,25.9057,VALID,347,VALID,0.184766,
2008-07-31, 07:40:04,VALID,1006.35,VALID,0,VALID,90.5319,VALID,140.587,VALID,25.9252,VALID,347,VALID,0.146875,
2008-07-31, 07:41:04,VALID,1006.35,VALID,0,VALID,90.6769,VALID,138.676,VALID,25.9447,VALID,347,VALID,0,
2008-07-31, 07:42:04,VALID,1006.35,VALID,0,VALID,90.7074,VALID,136.464,VALID,26.0031,VALID,347,VALID,0.364062,
2008-07-31, 07:43:04,VALID,1006.37,VALID,0,VALID,89.8606,VALID,133.849,VALID,26.0031,VALID,347,VALID,0.201562,
2008-07-31, 07:44:04,VALID,1006.38,VALID,0,VALID,90.1963,VALID,131.536,VALID,26.0226,VALID,347,VALID,0.369531,
2008-07-31, 07:45:04,VALID,1006.38,VALID,0,VALID,89.7919,VALID,129.525,VALID,26.0441,VALID,347,VALID,0.182812,
2008-07-31, 07:46:04,VALID,1006.4,VALID,0,VALID,89.4868,VALID,127.816,VALID,26.0031,VALID,347,VALID,0.182031,
2008-07-31, 07:47:04,VALID,1006.41,VALID,0,VALID,89.3342,VALID,126.005,VALID,26.0635,VALID,347,VALID,0,
2008-07-31, 07:48:04,VALID,1006.39,VALID,0,VALID,88.2433,VALID,124.296,VALID,26.0635,VALID,347,VALID,0,
2008-07-31, 07:49:04,VALID,1006.39,VALID,0,VALID,87.9076,VALID,123.19,VALID,26.0635,VALID,347,VALID,0,
2008-07-31, 07:50:04,VALID,1006.39,VALID,0,VALID,87.6482,VALID,122.385,VALID,26.0616,VALID,347,VALID,0.192969,
2008-07-31, 07:51:04,VALID,1006.41,VALID,0,VALID,86.9616,VALID,122.888,VALID,26.083,VALID,347,VALID,0.101172,
2008-07-31, 07:52:04,VALID,1006.41,VALID,0,VALID,88.4187,VALID,125.301,VALID,26.1415,VALID,347,VALID,0.457031,
2008-07-31, 07:53:04,VALID,1006.4,VALID,0,VALID,87.816,VALID,130.128,VALID,26.1415,VALID,347,VALID,0.275391,
2008-07-31, 07:54:04,VALID,1006.4,VALID,0,VALID,88.5103,VALID,136.665,VALID,26.1395,VALID,347,VALID,0.486719,
2008-07-31, 07:55:04,VALID,1006.4,VALID,0,VALID,88.1899,VALID,144.61,VALID,26.1609,VALID,347,VALID,0.308984,
2008-07-31, 07:56:04,VALID,1006.39,VALID,0,VALID,88.8002,VALID,152.856,VALID,26.1999,VALID,347,VALID,0.280469,
2008-07-31, 07:57:04,VALID,1006.37,VALID,0,VALID,89.3647,VALID,160.8,VALID,26.2389,VALID,347,VALID,0.462891,
2008-07-31, 07:58:04,VALID,1006.36,VALID,0,VALID,88.4416,VALID,169.348,VALID,26.2194,VALID,347,VALID,0.434375,
2008-07-31, 07:59:04,VALID,1006.37,VALID,0,VALID,88.4416,VALID,178.801,VALID,26.2389,VALID,350,VALID,0.460938,
2008-07-31, 08:00:04,VALID,1006.37,VALID,0,VALID,88.8841,VALID,188.958,VALID,26.2759,VALID,351,VALID,0.327734,
2008-07-31, 08:01:04,VALID,1006.35,VALID,0,VALID,88.4721,VALID,199.617,VALID,26.3148,VALID,351,VALID,0.330469,
2008-07-31, 08:02:04,VALID,1006.37,VALID,0,VALID,88.1517,VALID,211.383,VALID,26.3518,VALID,351,VALID,0.110937,
2008-07-31, 08:03:04,VALID,1006.36,VALID,0,VALID,88.0602,VALID,222.646,VALID,26.4707,VALID,351,VALID,0.0597656,
2008-07-31, 08:04:04,VALID,1006.34,VALID,0,VALID,88.4721,VALID,232.2,VALID,26.5271,VALID,351,VALID,0,
2008-07-31, 08:05:04,VALID,1006.33,VALID,0,VALID,86.8167,VALID,238.736,VALID,26.646,VALID,323,VALID,0.333984,
2008-07-31, 08:06:04,VALID,1006.3,VALID,0,VALID,86.069,VALID,242.759,VALID,26.7045,VALID,319,VALID,0.252344,
2008-07-31, 08:07:04,VALID,1006.27,VALID,0,VALID,83.9177,VALID,246.681,VALID,26.8019,VALID,319,VALID,0.201953,
2008-07-31, 08:08:04,VALID,1006.29,VALID,0,VALID,82.9183,VALID,257.039,VALID,26.8408,VALID,329,VALID,0.270703,
2008-07-31, 08:09:04,VALID,1006.28,VALID,0,VALID,82.4224,VALID,290.627,VALID,26.8993,VALID,330,VALID,0.430078,
2008-07-31, 08:10:04,VALID,1006.27,VALID,0,VALID,84.2152,VALID,351.669,VALID,26.9967,VALID,333,VALID,0.392188,
2008-07-31, 08:11:04,VALID,1006.29,VALID,0,VALID,81.4993,VALID,480.892,VALID,27.0747,VALID,319,VALID,0.38125,
2008-07-31, 08:12:04,VALID,1006.28,VALID,0,VALID,82.2241,VALID,485.719,VALID,27.25,VALID,319,VALID,0.157031,
2008-07-31, 08:13:04,VALID,1006.3,VALID,0,VALID,80.7746,VALID,488.736,VALID,27.4254,VALID,318,VALID,0.251172,
2008-07-31, 08:14:04,VALID,1006.32,VALID,0,VALID,79.6684,VALID,648.631,VALID,27.6203,VALID,317,VALID,0.328906,
2008-07-31, 08:15:04,VALID,1006.32,VALID,0,VALID,77.8832,VALID,617.758,VALID,27.7762,VALID,316,VALID,0.335547,
2008-07-31, 08:16:04,VALID,1006.32,VALID,0,VALID,77.4102,VALID,365.144,VALID,27.9127,VALID,316,VALID,0.472266,
2008-07-31, 08:17:04,VALID,1006.31,VALID,0,VALID,77.0898,VALID,325.019,VALID,27.9906,VALID,312,VALID,0.567187,
2008-07-31, 08:18:04,VALID,1006.31,VALID,0,VALID,78.2647,VALID,317.578,VALID,27.9733,VALID,310,VALID,0.20625,
2008-07-31, 08:19:04,VALID,1006.28,VALID,0,VALID,77.4637,VALID,353.479,VALID,27.9711,VALID,284,VALID,0.271875,
2008-07-31, 08:20:04,VALID,1006.29,VALID,0,VALID,79.409,VALID,337.892,VALID,27.9516,VALID,286,VALID,0.265234,
2008-07-31, 08:21:04,VALID,1006.29,VALID,0,VALID,80.8051,VALID,276.649,VALID,27.9927,VALID,351,VALID,0.278516,
2008-07-31, 08:22:04,VALID,1006.33,VALID,0,VALID,77.6467,VALID,256.838,VALID,27.9927,VALID,342,VALID,0.239063,
2008-07-31, 08:23:04,VALID,1006.33,VALID,0,VALID,77.0441,VALID,245.474,VALID,27.9321,VALID,221,VALID,0.158594,
2008-07-31, 08:24:04,VALID,1006.37,VALID,0,VALID,76.9907,VALID,247.988,VALID,27.8542,VALID,211,VALID,0.58125,
2008-07-31, 08:25:04,VALID,1006.37,VALID,0,VALID,78.0282,VALID,220.434,VALID,27.7588,VALID,209,VALID,0.812891,
2008-07-31, 08:26:04,VALID,1006.37,VALID,0,VALID,78.4783,VALID,207.864,VALID,27.5813,VALID,215,VALID,0.49375,
2008-07-31, 08:27:04,VALID,1006.36,VALID,0,VALID,79.554,VALID,203.942,VALID,27.5424,VALID,244,VALID,0.669141,
2008-07-31, 08:28:04,VALID,1006.36,VALID,0,VALID,78.2265,VALID,204.042,VALID,27.5208,VALID,224,VALID,0.333203,
2008-07-31, 08:29:04,VALID,1006.36,VALID,0,VALID,78.0816,VALID,211.484,VALID,27.5424,VALID,224,VALID,0.123438,
2008-07-31, 08:30:04,VALID,1006.35,VALID,0,VALID,76.9067,VALID,237.731,VALID,27.5639,VALID,224,VALID,0.280078,
2008-07-31, 08:31:04,VALID,1006.34,VALID,0,VALID,77.7535,VALID,234.211,VALID,27.5229,VALID,225,VALID,0.204297,
2008-07-31, 08:32:04,VALID,1006.36,VALID,0,VALID,78.608,VALID,256.637,VALID,27.6029,VALID,225,VALID,0.00234375,
2008-07-31, 08:33:04,VALID,1006.34,VALID,0,VALID,77.2424,VALID,297.666,VALID,27.5834,VALID,225,VALID,0.16875,
2008-07-31, 08:34:04,VALID,1006.34,VALID,0,VALID,77.8985,VALID,274.436,VALID,27.5444,VALID,225,VALID,0.292188,
2008-07-31, 08:35:04,VALID,1006.35,VALID,0,VALID,77.8298,VALID,283.99,VALID,27.525,VALID,150,VALID,0.576172,
2008-07-31, 08:36:04,VALID,1006.38,VALID,0,VALID,78.3867,VALID,322.204,VALID,27.447,VALID,174,VALID,0.326562,
2008-07-31, 08:37:04,VALID,1006.42,VALID,0,VALID,78.1579,VALID,309.231,VALID,27.4665,VALID,183,VALID,0.571094,
2008-07-31, 08:38:04,VALID,1006.45,VALID,0,VALID,79.1878,VALID,305.309,VALID,27.4059,VALID,171,VALID,0.767578,
2008-07-31, 08:39:04,VALID,1006.44,VALID,0,VALID,77.4942,VALID,309.834,VALID,27.369,VALID,186,VALID,1.24961,
2008-07-31, 08:40:04,VALID,1006.46,VALID,0,VALID,78.3562,VALID,298.471,VALID,27.3301,VALID,158,VALID,0.652734,
2008-07-31, 08:41:04,VALID,1006.45,VALID,0,VALID,79.2183,VALID,281.375,VALID,27.3085,VALID,151,VALID,1.39883,
2008-07-31, 08:42:04,VALID,1006.5,VALID,0,VALID,79.2564,VALID,285.8,VALID,27.3085,VALID,184,VALID,1.26875,
2008-07-31, 08:43:04,VALID,1006.51,VALID,0,VALID,77.9977,VALID,301.89,VALID,27.289,VALID,200,VALID,1.11055,
2008-07-31, 08:44:04,VALID,1006.47,VALID,0,VALID,77.4408,VALID,386.061,VALID,27.289,VALID,169,VALID,1.41289,
2008-07-31, 08:45:04,VALID,1006.53,VALID,0,VALID,76.7771,VALID,578.74,VALID,27.289,VALID,194,VALID,1.125,
2008-07-31, 08:46:04,VALID,1006.49,VALID,0,VALID,78.8674,VALID,371.379,VALID,27.3475,VALID,166,VALID,0.601563,
2008-07-31, 08:47:04,VALID,1006.51,VALID,0,VALID,79.3556,VALID,388.475,VALID,27.4449,VALID,167,VALID,0.569922,
2008-07-31, 08:48:04,VALID,1006.5,VALID,0,VALID,78.0816,VALID,309.432,VALID,27.5229,VALID,187,VALID,1.44961,
2008-07-31, 08:49:04,VALID,1006.5,VALID,0,VALID,76.449,VALID,307.622,VALID,27.4644,VALID,191,VALID,1.14961,
2008-07-31, 08:50:04,VALID,1006.52,VALID,0,VALID,77.1509,VALID,311.544,VALID,27.4839,VALID,209,VALID,0.750391,
2008-07-31, 08:51:04,VALID,1006.49,VALID,0,VALID,78.0587,VALID,313.555,VALID,27.4644,VALID,210,VALID,0.963281,
2008-07-31, 08:52:04,VALID,1006.53,VALID,0,VALID,78.4325,VALID,334.07,VALID,27.4449,VALID,226,VALID,0.802734,
2008-07-31, 08:53:04,VALID,1006.54,VALID,0,VALID,76.2735,VALID,348.451,VALID,27.4254,VALID,180,VALID,0.817578,
2008-07-31, 08:54:04,VALID,1006.48,VALID,0,VALID,76.8457,VALID,441.572,VALID,27.4059,VALID,203,VALID,0.596875,
2008-07-31, 08:55:04,VALID,1006.49,VALID,0,VALID,77.0135,VALID,430.812,VALID,27.4254,VALID,165,VALID,0.861328,
2008-07-31, 08:56:04,VALID,1006.5,VALID,0,VALID,77.1432,VALID,646.821,VALID,27.4839,VALID,196,VALID,0.679688,
2008-07-31, 08:57:04,VALID,1006.49,VALID,0,VALID,77.0746,VALID,609.411,VALID,27.5424,VALID,168,VALID,1.33672,
2008-07-31, 08:58:04,VALID,1006.5,VALID,0,VALID,76.9907,VALID,530.168,VALID,27.6203,VALID,164,VALID,0.687891,
2008-07-31, 08:59:04,VALID,1006.49,VALID,0,VALID,78.6156,VALID,455.148,VALID,27.7372,VALID,153,VALID,0.470703,
2008-07-31, 09:00:04,VALID,1006.49,VALID,0,VALID,77.7764,VALID,464.4,VALID,27.8347,VALID,151,VALID,0.643359,
2008-07-31, 09:01:04,VALID,1006.51,VALID,0,VALID,77.5247,VALID,772.424,VALID,28.0122,VALID,165,VALID,0.626172,
2008-07-31, 09:02:04,VALID,1006.45,VALID,0,VALID,76.8762,VALID,516.29,VALID,28.0491,VALID,240,VALID,0.585547,
2008-07-31, 09:03:04,VALID,1006.44,VALID,0,VALID,75.5564,VALID,472.847,VALID,28.0317,VALID,195,VALID,1.57695,
2008-07-31, 09:04:04,VALID,1006.38,VALID,0,VALID,75.1674,VALID,486.423,VALID,27.8737,VALID,153,VALID,0.936719,
2008-07-31, 09:05:04,VALID,1006.38,VALID,0,VALID,76.3651,VALID,432.622,VALID,27.8347,VALID,140,VALID,1.02734,
2008-07-31, 09:06:04,VALID,1006.4,VALID,0,VALID,77.0288,VALID,315.064,VALID,27.8563,VALID,231,VALID,0.7375,
2008-07-31, 09:07:04,VALID,1006.4,VALID,0,VALID,77.9748,VALID,270.414,VALID,27.8152,VALID,33,VALID,0.410156,
2008-07-31, 09:08:04,VALID,1006.41,VALID,0,VALID,75.5107,VALID,258.748,VALID,27.7588,VALID,167,VALID,1.62422,
2008-07-31, 09:09:04,VALID,1006.38,VALID,0,VALID,78.5241,VALID,251.709,VALID,27.5813,VALID,165,VALID,1.35859,
2008-07-31, 09:10:04,VALID,1006.37,VALID,0,VALID,77.9977,VALID,242.759,VALID,27.486,VALID,157,VALID,1.59687,
2008-07-31, 09:11:04,VALID,1006.39,VALID,0,VALID,79.1115,VALID,241.753,VALID,27.447,VALID,188,VALID,1.25977,
2008-07-31, 09:12:04,VALID,1006.37,VALID,0,VALID,79.1267,VALID,245.575,VALID,27.4275,VALID,198,VALID,1.37227,
2008-07-31, 09:13:04,VALID,1006.36,VALID,0,VALID,79.8744,VALID,269.509,VALID,27.408,VALID,193,VALID,0.989062,
2008-07-31, 09:14:04,VALID,1006.4,VALID,0,VALID,81.362,VALID,282.984,VALID,27.3475,VALID,162,VALID,0.808984,
2008-07-31, 09:15:04,VALID,1006.38,VALID,0,VALID,80.9119,VALID,279.464,VALID,27.3844,VALID,172,VALID,0.65625,
2008-07-31, 09:16:04,VALID,1006.37,VALID,0,VALID,79.3785,VALID,279.967,VALID,27.4254,VALID,160,VALID,1.10508,
2008-07-31, 09:17:04,VALID,1006.36,VALID,0,VALID,79.0505,VALID,286.906,VALID,27.4254,VALID,167,VALID,0.609766,
2008-07-31, 09:18:04,VALID,1006.35,VALID,0,VALID,79.5692,VALID,294.549,VALID,27.4839,VALID,174,VALID,0.80625,
2008-07-31, 09:19:04,VALID,1006.37,VALID,0,VALID,81.095,VALID,334.372,VALID,27.5208,VALID,153,VALID,0.4625,
2008-07-31, 09:20:04,VALID,1006.34,VALID,0,VALID,79.0352,VALID,384.754,VALID,27.6203,VALID,143,VALID,0.667969,
2008-07-31, 09:21:04,VALID,1006.3,VALID,0,VALID,80.9043,VALID,338.495,VALID,27.7178,VALID,164,VALID,0.323828,
2008-07-31, 09:22:04,VALID,1006.31,VALID,0,VALID,81.69,VALID,316.472,VALID,27.8542,VALID,204,VALID,0.449609,
2008-07-31, 09:23:04,VALID,1006.29,VALID,0,VALID,79.1039,VALID,291.633,VALID,27.8737,VALID,184,VALID,1.0875,
2008-07-31, 09:24:04,VALID,1006.26,VALID,0,VALID,79.3556,VALID,286.504,VALID,27.8347,VALID,179,VALID,1.18672,
2008-07-31, 09:25:04,VALID,1006.26,VALID,0,VALID,79.8515,VALID,287.811,VALID,27.8542,VALID,212,VALID,1.29531,
2008-07-31, 09:26:04,VALID,1006.24,VALID,0,VALID,78.2723,VALID,291.633,VALID,27.8152,VALID,176,VALID,1.07227,
2008-07-31, 09:27:04,VALID,1006.24,VALID,0,VALID,79.7371,VALID,298.571,VALID,27.7157,VALID,178,VALID,1.13828,
2008-07-31, 09:28:04,VALID,1006.21,VALID,0,VALID,80.2635,VALID,298.069,VALID,27.6593,VALID,190,VALID,0.903906,
2008-07-31, 09:29:04,VALID,1006.2,VALID,0,VALID,79.3251,VALID,285.498,VALID,27.6182,VALID,185,VALID,0.895312,
2008-07-31, 09:30:04,VALID,1006.19,VALID,0,VALID,79.5311,VALID,276.146,VALID,27.6398,VALID,199,VALID,1.46211,
2008-07-31, 09:31:04,VALID,1006.23,VALID,0,VALID,78.4401,VALID,280.872,VALID,27.5034,VALID,181,VALID,1.73828,
2008-07-31, 09:32:04,VALID,1006.22,VALID,0,VALID,79.7523,VALID,319.69,VALID,27.4644,VALID,176,VALID,0.609766,
2008-07-31, 09:33:04,VALID,1006.23,VALID,0,VALID,78.0816,VALID,393.101,VALID,27.4623,VALID,182,VALID,1.41523,
2008-07-31, 09:34:04,VALID,1006.26,VALID,0,VALID,78.4707,VALID,308.728,VALID,27.4428,VALID,214,VALID,1.32578,
2008-07-31, 09:35:04,VALID,1006.26,VALID,0,VALID,79.7523,VALID,292.739,VALID,27.4644,VALID,176,VALID,0.982813,
2008-07-31, 09:36:04,VALID,1006.26,VALID,0,VALID,79.9812,VALID,284.694,VALID,27.4623,VALID,189,VALID,1.0418,
2008-07-31, 09:37:04,VALID,1006.26,VALID,0,VALID,80.4008,VALID,286.604,VALID,27.4818,VALID,197,VALID,0.796094,
2008-07-31, 09:38:04,VALID,1006.26,VALID,0,VALID,81.1408,VALID,295.856,VALID,27.5813,VALID,180,VALID,0.101953,
2008-07-31, 09:39:04,VALID,1006.25,VALID,0,VALID,79.7905,VALID,299.879,VALID,27.6398,VALID,225,VALID,0.668359,
2008-07-31, 09:40:04,VALID,1006.2,VALID,0,VALID,79.6379,VALID,289.822,VALID,27.6767,VALID,300,VALID,0.358984,
2008-07-31, 09:41:04,VALID,1006.2,VALID,0,VALID,79.0199,VALID,282.481,VALID,27.8152,VALID,271,VALID,0.282031,
2008-07-31, 09:42:04,VALID,1006.18,VALID,0,VALID,78.2342,VALID,280.068,VALID,27.9321,VALID,297,VALID,0.700781,
2008-07-31, 09:43:04,VALID,1006.17,VALID,0,VALID,77.5399,VALID,283.386,VALID,28.0491,VALID,249,VALID,0.402734,
2008-07-31, 09:44:04,VALID,1006.15,VALID,0,VALID,78.7224,VALID,290.727,VALID,28.1271,VALID,218,VALID,0.632031,
2008-07-31, 09:45:04,VALID,1006.13,VALID,0,VALID,77.334,VALID,304.907,VALID,28.1076,VALID,180,VALID,0.520703,
2008-07-31, 09:46:04,VALID,1006.12,VALID,0,VALID,78.463,VALID,322.606,VALID,28.0665,VALID,233,VALID,0.628906,
2008-07-31, 09:47:04,VALID,1006.1,VALID,0,VALID,76.8686,VALID,341.311,VALID,28.0686,VALID,210,VALID,0.592969,
2008-07-31, 09:48:04,VALID,1006.08,VALID,0,VALID,77.5781,VALID,380.43,VALID,28.008,VALID,225,VALID,0.486328,
2008-07-31, 09:49:04,VALID,1006.06,VALID,0,VALID,76.0981,VALID,391.894,VALID,28.0275,VALID,208,VALID,0.378516,
2008-07-31, 09:50:04,VALID,1006.06,VALID,0,VALID,75.5412,VALID,389.983,VALID,28.0296,VALID,179,VALID,1.22734,
2008-07-31, 09:51:04,VALID,1006.06,VALID,0,VALID,75.4191,VALID,378.217,VALID,27.93,VALID,212,VALID,1.20859,
2008-07-31, 09:52:04,VALID,1006.06,VALID,0,VALID,76.4032,VALID,366.652,VALID,27.8542,VALID,171,VALID,1.50156,
2008-07-31, 09:53:04,VALID,1006.07,VALID,0,VALID,78.196,VALID,361.725,VALID,27.7936,VALID,173,VALID,1.09063,
2008-07-31, 09:54:04,VALID,1006.06,VALID,0,VALID,78.6766,VALID,364.34,VALID,27.7957,VALID,230,VALID,0.430469,
2008-07-31, 09:55:04,VALID,1006.05,VALID,0,VALID,78.0358,VALID,375.2,VALID,27.8326,VALID,242,VALID,0.801953,
2008-07-31, 09:56:04,VALID,1006.02,VALID,0,VALID,76.7923,VALID,375.703,VALID,27.8326,VALID,208,VALID,1.14141,
2008-07-31, 09:57:04,VALID,1006.04,VALID,0,VALID,75.5107,VALID,383.849,VALID,27.7957,VALID,214,VALID,1.62695,
2008-07-31, 09:58:04,VALID,1006.05,VALID,0,VALID,77.4942,VALID,382.441,VALID,27.7157,VALID,221,VALID,1.06172,
2008-07-31, 09:59:04,VALID,1006.09,VALID,0,VALID,79.1878,VALID,397.626,VALID,27.6572,VALID,198,VALID,1.06328,
2008-07-31, 10:00:04,VALID,1006.09,VALID,0,VALID,76.5482,VALID,406.576,VALID,27.6203,VALID,209,VALID,1.22344,
2008-07-31, 10:01:04,VALID,1006.1,VALID,0,VALID,76.3803,VALID,394.106,VALID,27.6182,VALID,213,VALID,1.24961,
2008-07-31, 10:02:04,VALID,1006.1,VALID,0,VALID,76.0828,VALID,381.335,VALID,27.5813,VALID,163,VALID,0.867969,
2008-07-31, 10:03:04,VALID,1006.11,VALID,0,VALID,79.1573,VALID,386.966,VALID,27.6398,VALID,225,VALID,0.741797,
2008-07-31, 10:04:04,VALID,1006.11,VALID,0,VALID,78.2494,VALID,392.296,VALID,27.7546,VALID,253,VALID,0.875781,
2008-07-31, 10:05:04,VALID,1006.09,VALID,0,VALID,77.601,VALID,404.464,VALID,27.8542,VALID,200,VALID,1.09219,
2008-07-31, 10:06:04,VALID,1006.09,VALID,0,VALID,74.9919,VALID,397.726,VALID,27.8737,VALID,235,VALID,1.16211,
2008-07-31, 10:07:04,VALID,1006.08,VALID,0,VALID,77.0593,VALID,427.091,VALID,27.8542,VALID,173,VALID,0.426953,